Printer-friendly version

IAU Minor Planet Center

Minor Planet Center

MPEC 2005-S65 : 2005 SP9

The following Minor Planet Electronic Circular may be linked-to from your own Web pages, but must not otherwise be redistributed electronically.


Read MPEC 2005-S64 Read MPEC 2005-S66


M.P.E.C. 2005-S65                                Issued 2005 Sept. 27, 16:17 UT

     The Minor Planet Electronic Circulars contain information on unusual
         minor planets and routine data on comets.  They are published
   on behalf of Commission 20 of the International Astronomical Union by the
          Minor Planet Center, Smithsonian Astrophysical Observatory,
                          Cambridge, MA 02138, U.S.A.

                  Supported in part by the Brinson Foundation
             Prepared using the Tamkin Foundation Computer Network

                              MPC@CFA.HARVARD.EDU
          URL http://cfa-www.harvard.edu/iau/mpc.html  ISSN 1523-6714

                                   2005 SP9

Observations:
     K05S09P* C2005 09 25.26135 23 35 14.61 +69 33 10.1          19.1   ES065704
     K05S09P  C2005 09 25.27196 23 34 44.44 +69 30 16.3          19.0   ES065704
     K05S09P  C2005 09 25.28257 23 34 14.60 +69 27 22.9          19.0   ES065704
     K05S09P  C2005 09 25.29313 23 33 44.69 +69 24 30.7          19.2   ES065704
     K05S09P  C2005 09 25.30371 23 33 15.07 +69 21 37.6          19.1   ES065704
     K05S09P 3C2005 09 26.25067 22 59 47.73 +65 05 57.4          19.0 V ES065H06
     K05S09P 3C2005 09 26.26760 22 59 18.55 +65 01 27.9          18.9 V ES065H06
     K05S09P 3C2005 09 26.28466 22 58 49.06 +64 56 56.8          19.4 V ES065H06
     K05S09P  C2005 09 26.36494 22 56 36.47 +64 35 29.5          19.1   ES065704
     K05S09P  C2005 09 26.37578 22 56 19.08 +64 32 35.5          19.2   ES065704
     K05S09P  C2005 09 26.38631 22 56 02.17 +64 29 45.9          19.3   ES065704
     K05S09P  C2005 09 26.39689 22 55 45.60 +64 26 54.2          20.0   ES065704
     K05S09P  C2005 09 26.40746 22 55 28.55 +64 24 05.2          20.5   ES065704
     K05S09P  C2005 09 26.41801 22 55 12.25 +64 21 17.3          18.9   ES065704
     K05S09P  C2005 09 26.42879 22 54 55.47 +64 18 23.5          19.5   ES065704
     K05S09P  C2005 09 26.42890 22 54 55.36 +64 18 22.8          19.4   ES065704
     K05S09P  C2005 09 26.43959 22 54 38.97 +64 15 29.9          18.9   ES065704
     K05S09P  C2005 09 26.43970 22 54 38.74 +64 15 29.0          19.3   ES065704
     K05S09P  C2005 09 26.45037 22 54 22.42 +64 12 37.2          19.2   ES065704
     K05S09P  C2005 09 26.45048 22 54 22.19 +64 12 35.9          19.1   ES065704
     K05S09P  C2005 09 26.46115 22 54 06.25 +64 09 44.6          19.7   ES065704
     K05S09P  C2005 09 26.46126 22 54 06.04 +64 09 42.5          19.1   ES065704
     K05S09P  C2005 09 27.23805 22 37 45.53 +60 54 30.8          18.4 R ES065734
     K05S09P  C2005 09 27.23917 22 37 44.33 +60 54 13.3          17.9 R ES065734
     K05S09P  C2005 09 27.24028 22 37 42.69 +60 53 56.8          18.1 R ES065734
     K05S09P  C2005 09 27.24141 22 37 41.60 +60 53 40.9          18.9 R ES065734
     K05S09P  C2005 09 27.24256 22 37 40.55 +60 53 23.8          18.6 R ES065734
     K05S09P 3C2005 09 27.28244 22 36 57.04 +60 43 50.4          18.3 V ES065H06
     K05S09P 3C2005 09 27.28595 22 36 53.13 +60 42 59.0          18.5 V ES065H06
     K05S09P 3C2005 09 27.30070 22 36 36.82 +60 39 23.1          18.8 V ES065H06

Observer details:
704 Lincoln Laboratory ETS, New Mexico.  Observers M. Bezpalko, L. Manguso,
    D. Torres, R. Kracke, A. Milner, H. Love.  Measurers J. Stuart, R. Sayer,
    J. Evans, J. Kommers.  1.0-m f/2.15 reflector + CCD.
734 Farpoint Observatory.  Observers D. Tibbets, K. Dobbs.  Measurer G. Hug.
    0.7-m reflector + CCD.
H06 New Mexico Skies Observatory.  Observer J. Sue.  0.25-m reflector + CCD.

Orbital elements:
2005 SP9
Epoch 2005 Aug. 18.0 TT = JDT 2453600.5                 MPC
M  28.22335              (2000.0)            P               Q
n   1.22087497     Peri.  228.06096     -0.72369696     +0.68887790
a   0.8670056      Node   354.93910     -0.40770429     -0.47511890
e   0.6260380      Incl.   27.95381     -0.55681228     -0.54745709
P   0.81           H   21.3           G   0.15           U   9
Residuals in seconds of arc
050925 704  0.3-  1.8+    050926 704  1.0-  0.2+    050926 704  0.6+  0.5+
050925 704  0.3-  0.3+    050926 704  0.5+  1.6-    050926 704  0.3+  0.2+
050925 704  0.6+  0.3-    050926 704  2.0-  0.8-    050927 734  0.1+  0.5+
050925 704  0.7-  0.2-    050926 704  0.7-  0.8+    050927 734  0.6+  0.6-
050925 704  1.1-  0.2-    050926 704  1.0-  0.1+    050927 734  2.3-  0.8-
050926 H06  0.1+  0.1-    050926 704  0.6-  1.1+    050927 734  1.0-  0.2-
050926 H06  0.2-  0.3+    050926 704  0.1-  0.1-    050927 734  0.8+  0.4-
050926 H06  2.7-  1.5+    050926 704  0.5-  0.7+    050927 H06  0.2-  0.4+
050926 704  1.0-  0.7+    050926 704  0.6-  0.2+    050927 H06  0.4-  0.4+
050926 704  0.5-  0.7+    050926 704  1.0-  0.7+    050927 H06  0.9-  0.6+

Ephemeris:
2005 SP9                 a,e,i = 0.87, 0.63, 28                  q = 0.3242
Date    TT    R. A. (2000) Decl.     Delta      r     Elong.  Phase     V
2005 09 27    22 42.29   +61 52.7    0.112    1.058   117.2    57.4    18.7
2005 10 02    21 55.33   +46 14.0    0.160    1.101   125.3    47.9    19.3
2005 10 07    21 42.44   +37 37.9    0.215    1.140   126.5    44.8    20.0
2005 10 12    21 38.06   +32 26.0    0.274    1.177   125.1    43.9    20.5
2005 10 17    21 37.31   +28 59.4    0.334    1.210   122.7    43.8    21.0
2005 10 22    21 38.58   +26 33.6    0.396    1.241   119.9    44.0    21.5
2005 10 27    21 41.17   +24 46.2    0.459    1.269   116.8    44.3    21.8

Kyle E. Smalley              (C) Copyright 2005 MPC           M.P.E.C. 2005-S65

Read MPEC 2005-S64 Read MPEC 2005-S66


Our Web policy. Index to the CBAT/MPC/ICQ pages.


Valid HTML 4.01!